Regional Weather Roundup
Issued by NWS Charleston, SC

Current Version | Previous Version | Graphics & Text | Print | Product List | Glossary On
Versions: 1 2 3 4 5 6 7 8 9 10 11 12 13 14 15 16 17 18 19 20 21 22 23 24 25 26 27 28 29 30 31 32 33 34 35 36 37 38 39 40 41 42 43 44 45 46 47 48 49 50
000
ASUS42 KCHS 280813
RWRCHS

REGIONAL WEATHER ROUNDUP
NATIONAL WEATHER SERVICE CHARLESTON SC
400 AM EDT SAT MAY 28 2016

NOTE: "FAIR" INDICATES FEW OR NO CLOUDS BELOW 12,000 FEET WITH NO
SIGNIFICANT WEATHER AND/OR OBSTRUCTIONS TO VISIBILITY.

NOT ALL STATIONS ARE QUALITY CONTROLLED. USE DATA WITH CAUTION...
ESPECIALLY DEWPOINT OBSERVATIONS.

SCZ027-030-031-034>040-042>050-280900-
...SOUTHEAST SOUTH CAROLINA...

CITY           SKY/WX    TMP DP  RH WIND       PRES   REMARKS
N CHARLESTON   PTCLDY    71  66  84 NE7       30.06F
WATERFRONT PRK   N/A     74  70  87 N7        30.04F
MOUNT PLEASANT FAIR      72  70  94 CALM      30.06F
JOHNS ISLAND   FAIR      73  70  88 NE7       30.06F
PINOPOLIS        N/A     73  68  83 E7        30.01F
MONCKS CORNER  PTSUNNY   66  61  82 NE5       30.07F
SUMMERVILLE    CLOUDY    70  66  88 N3        30.08F
BEAUFORT MCAS  LGT RAIN  71  67  87 N6        30.06F
BEAUFORT ARPT  CLOUDY    73  68  83 N7        30.05F
HILTON HEAD IS PTCLDY    73  72  94 N5        30.06S
WALTERBORO     CLOUDY    72  68  88 NE5       30.08S
ALLENDALE        N/A     66  63  88 CALM      30.07F

...SOUTHERN MIDLANDS AND PEE DEE...

CITY           SKY/WX    TMP DP  RH WIND       PRES   REMARKS
GEORGETOWN     PTSUNNY   70  68  94 NE5       30.09F
KINGSTREE      CLOUDY    66  61  82 CALM      30.10S
ORANGEBURG     CLOUDY    68  62  81 NE3       30.09F
BARNWELL       FAIR      63  63 100 CALM      30.09F
AIKEN          FAIR      57  55  94 CALM      30.14S
MANNING        CLOUDY    66  63  88 CALM      30.10S
COLUMBIA       CLEAR     61  56  83 CALM      30.10F
SUMTER         PTCLDY    60  57  89 N7        30.08F
FLORENCE       CLEAR     63  60  90 NE5       30.12S
MYRTLE BEACH   MOCLDY    70  61  73 NE6       30.11F
N MYRTLE BEACH CLEAR     68  65  90 N6        30.09F

$$

GAZ063-065-086>088-099>101-113>116-118-119-134>141-150-280900-
...SOUTHEAST GEORGIA...

CITY           SKY/WX    TMP DP  RH WIND       PRES   REMARKS
SAVANNAH ARPT  PTCLDY    67  64  90 N3        30.05F
HUNTER AAF     PTCLDY    70  69  98 VRB3      30.02F
FORT STEWART   PTCLDY    65  63  93 CALM      30.02F
STATESBORO     CLEAR     64  63  99 CALM      30.06F
SYLVANIA       MOSUNNY   68  65  90 E5        30.08F
CLAXTON        FAIR      62  62  99 CALM      30.06F

...CSRA...CENTRAL AND FAR SOUTHEAST GEORGIA...

CITY           SKY/WX    TMP DP  RH WIND       PRES   REMARKS
THOMSON        CLEAR     60  60 100 CALM      30.15R
AUGUSTA-BUSH   CLEAR     58  58 100 CALM      30.08F
AUGUSTA-DANIEL CLEAR     67  60  78 NE3       30.10S
SWAINSBORO     FAIR      64  63  94 NE3       30.08S
VIDALIA        CLEAR     66  64  94 CALM      30.07S
EASTMAN        FOG      N/A N/A N/A CALM      30.10S VSB 3/4
HAZLEHURST     FAIR      67  67 100 CALM      30.05S
ALMA           CLEAR     66  65  96 CALM      30.04F
WAYCROSS       CLEAR     65  65 100 NE3       30.03F
JESUP          FAIR      63  63 100 CALM      30.03F
BAXLEY         FAIR      68  66  94 CALM      30.05R
BRUNSWICK        N/A     68  66  94 CALM      30.03F FOG
SAINT SIMONS   PTCLDY    74  71  91 NE9       30.02F

$$

SCZ027-028-034-036>038-045-046-048>050-GAZ119-141-280900-
...LAKE AND SUPPLEMENTAL COASTAL OBSERVATIONS...

STATION/POSITION TIME  TEMP    WIND        PRES    WAVE   SWELL
                       AIR SEA DIR/SP/G            HT/PER HT/PER/DIR
                 (UTC) (F)     (DEG/KT/KT) (MB)    (FT/S) (FT/S/D)
WINYAH BAY       NOT AVBL
LAKE MURRAY      0700   71     100/  4/  4 1019.3S
ACE BASIN NERRS  NOT AVBL
FORT PULASKI     0700   75 77   50/  5/  8 1018.1F
SAPELO ISLAND    0700   73      40/  3     1017.0F

$$

ANZ835-935-AMZ111-154-330-350-352-354-370-450-454-472-280900-
...C-MAN AND BUOY OBSERVATIONS...

STATION/POSITION TIME  TEMP    WIND        PRES    WAVE   SWELL
                       AIR SEA DIR/SP/G            HT/PER HT/PER/DIR
                 (UTC) (F)     (DEG/KT/KT) (MB)    (FT/S) (FT/S/D)
BUOY 41004       0750   76 76   30/ 10/ 10 1017.0F   4/ 7   3/ 7
BUOY 41008       0750   76 76   50/ 14/ 16 1016.3F   3/ 5   2/100/ 8
FOLLY BEACH CMAN 0700   75      60/ 12/ 12 1018.3F
CAPERS NEARSHORE 0708   75 76   60/ 12/ 14 1017.8F
FRIPP NEARSHORE  0708   76 76   60/ 14/ 17 1016.8F


STATION/POSITION TIME  TEMP    WIND        PRES    WAVE   SWELL
                       AIR SEA DIR/SP/G            HT/PER HT/PER/DIR
                 (UTC) (F)     (DEG/KT/KT) (MB)    (FT/S) (FT/S/D)
5E ST. MARYS GA  NOT AVBL
FRYING PAN BUOY  0700   77 76   70/ 10/ 12 1018.4F
BUOY 41025       0750   76 78  120/ 12/ 14 1020.0F   4/ 8   3/110/ 8
CAPE LOOKOUT NC  0700   74     100/  6/  7 1019.7F
BUOY 41002       0750   76 77   90/ 17/ 19 1016.9F   5/ 8   3/110/ 8
BUOY 41010       0720   76 78  340/ 12/ 14 1013.5F
ST AUGUSTINE FL  0800   76 79   50/  9/ 10 1016.3F


$$




USA.gov is the U.S. government's official web portal to all federal, state and local government web resources and services.